Terminal Aerodrome Forecast
Issued by NWS Atlanta, GA

Home | Current Version | Previous Version | Text Only | Print | Product List | Glossary On
Versions: 1 2 3 4 5 6 7 8 9 10 11 12 13 14 15 16 17 18 19 20 21 22 23 24 25 26 27 28 29 30 31 32 33 34 35 36 37 38 39 40
000
FTUS42 KFFC 211500 AAB
TAFATL
TAF AMD
KATL 211558Z 2116/2218 28008KT P6SM FEW250
     FM211800 29010G17KT P6SM SCT050
     FM220000 27006KT P6SM BKN080
     FM220600 28005KT P6SM SCT025 BKN050
     FM221400 34010G18KT P6SM SCT250=

USA.gov is the U.S. government's official web portal to all federal, state and local government web resources and services.